Welcome to our new website - Welkom op onze vernieuwde website - Bienvenue sur notre nouveau site web - Willkommen auf unserer neuen Website
Check our progress frequently. Prüfen Sie unsere Fortschritte regelmäßig. Consultez notre progression fréquemment. Komt u straks nog eens terug


Hej. Vi har købt ny vejrstation, og er ved at bygge en helt ny vejrside.
Kom snart tilbage og følg udviklingen.
Du kan også komme med kommentarer eller evt. ønsker via "Kontakt" i bunden.



Webcam more information Webcam


Rain radar more information rain snow radar


Visit our other weather sites:

Template documentation
and downloads

And another site



Select another period ( hide this area )

Units Period Custom range Directly to
Metric English Both
Daily Weekly Monthly Yearly
use both date-selectors for a custom range
previous Day
With this date

WeatherUnderground graphs for this period ( click here )


Daily Summary for Thursday 19 September 2019
Time Temp. ( °C ) Dew pt. ( °C ) Wind ( km/h ) from Gust ( km/h ) Pressure ( hPa ) Humid.( % ) Rainrate ( cm ) Solar ( W/m2 )
High14,9 10,1 17,7 SW ( 260/812 ) 24,1 1027,7 93 0,30 566
Average9,4 6,3 4,9 SW #66/164 8,6 1024,6 82 0,60 322 #84/164
Low6,2 4,5 -   0,0 1022,2 53 -  
Daily Tabular details for Thursday 19 September 2019
Time Temp. ( °C ) Dew pt. ( °C ) Wind ( km/h ) from Gust ( km/h ) Pressure ( hPa ) Humid.( % ) Rainrate ( cm ) Solar ( W/m2 )
00:00 6,9 5,1 3,2 SW 4,8 1022,2 88 - -
00:05 6,9 5,1 4,7 SW 6,4 1022,2 88 - -
00:10 6,8 5,0 1,4 SW 4,8 1022,2 88 - -
00:15 6,7 4,9 3,2 SW 4,8 1022,2 88 - -
00:20 6,6 4,8 3,2 SW 4,8 1022,2 88 - -
00:25 6,6 4,8 3,2 SW 4,8 1022,2 88 - -
00:30 6,7 4,9 3,2 WSW 4,8 1022,6 88 - -
00:35 6,7 4,9 1,4 WSW 3,2 1022,6 88 - -
00:40 6,8 5,0 1,4 SW 6,4 1022,2 88 - -
00:45 6,8 5,0 3,2 SW 3,2 1022,6 88 - -
00:50 6,6 4,8 1,4 SW 3,2 1022,6 88 - -
00:55 6,6 4,8 3,2 SW 3,2 1022,6 88 - -
01:00 6,6 4,8   Calm 3,2 1022,6 88 - -
01:05 6,8 5,0 1,4 West 4,8 1022,6 88 - -
01:10 6,9 5,1 1,4 West 4,8 1022,6 88 - -
01:15 6,9 4,9 1,4 West 4,8 1022,6 87 - -
01:20 6,9 4,9 3,2 West 4,8 1022,9 87 - -
01:25 6,9 4,9 3,2 West 4,8 1022,6 87 - -
01:30 6,8 4,8 3,2 West 4,8 1022,9 87 - -
01:35 6,6 4,6 3,2 SW 4,8 1022,6 87 - -
01:40 6,4 4,6 3,2 SW 4,8 1022,9 88 - -
01:45 6,4 4,6 1,4 SW 3,2 1022,9 88 - -
01:50 6,4 4,6 1,4 SW 3,2 1022,9 88 - -
01:55 6,3 4,5 3,2 SW 4,8 1022,9 88 - -
02:00 6,3 4,6 1,4 SW 3,2 1022,9 89 - -
02:05 6,3 4,6 3,2 ENE 11,3 1023,2 89 - -
02:10 6,5 4,8 3,2 NE 4,8 1023,2 89 - -
02:15 7,0 5,5   Calm 1,6 1023,2 90 - -
02:20 7,3 5,6 1,4 NE 3,2 1023,2 89 - -
02:25 7,4 5,7 1,4 NE 1,6 1023,2 89 - -
02:30 7,5 5,8 1,4 NE 3,2 1023,2 89 - -
02:35 7,6 5,9   Calm   1023,2 89 - -
02:40 7,6 5,9 3,2 NW 6,4 1023,2 89 - -
02:45 7,7 6,0 1,4 NW 3,2 1023,2 89 - -
02:50 7,8 6,1 1,4 NW 4,8 1023,2 89 - -
02:55 7,7 6,0 3,2 NW 4,8 1023,2 89 - -
03:00 7,7 6,0 4,7 SW 6,4 1023,2 89 - -
03:05 7,7 6,0 4,7 SW 4,8 1023,2 89 - -
03:10 7,6 5,9 6,4 SW 6,4 1023,2 89 - -
03:15 7,5 5,8 3,2 SW 4,8 1023,2 89 - -
03:20 7,6 5,9 4,7 SW 4,8 1023,2 89 - -
03:25 7,5 5,8 1,4 SW 3,2 1023,2 89 - -
03:30 7,6 5,9   Calm 8,0 1023,2 89 - -
03:35 7,5 5,8 3,2 SW 8,0 1023,2 89 - -
03:40 7,4 5,7 3,2 SW 4,8 1023,2 89 - -
03:45 7,4 5,7 1,4 SW 3,2 1023,2 89 - -
03:50 7,3 5,6 1,4 SW 3,2 1023,6 89 - -
03:55 7,2 5,5 3,2 SW 4,8 1023,6 89 - -
04:00 7,2 5,5 1,4 SW 3,2 1023,6 89 - -
04:05 7,0 5,3 3,2 South 6,4 1023,6 89 - -
04:10 7,1 5,6 3,2 South 4,8 1023,6 90 - -
04:15 7,2 5,7 1,4 South 6,4 1023,6 90 - -
04:20 7,2 5,7 4,7 WSW 6,4 1023,6 90 - -
04:25 7,2 5,7 4,7 NW 4,8 1023,6 90 - -
04:30 7,1 5,6 3,2 SW 6,4 1023,6 90 - -
04:35 7,2 5,7 1,4 SW 3,2 1023,6 90 - -
04:40 7,2 5,5 3,2 SW 4,8 1023,6 89 - -
04:45 6,9 5,2 4,7 SW 6,4 1023,6 89 - -
04:50 6,8 5,1 4,7 SW 4,8 1023,6 89 - -
04:55 6,6 4,9 3,2 SW 4,8 1023,6 89 - -
05:00 6,4 4,7 3,2 SW 4,8 1023,6 89 - -
05:05 6,3 4,6 3,2 SW 4,8 1023,6 89 - -
05:10 6,4 4,9 1,4 SW 4,8 1023,6 90 - -
05:15 6,4 4,9 3,2 SW 4,8 1023,9 90 - -
05:20 6,3 4,8 4,7 SW 11,3 1023,9 90 - -
05:25 6,4 4,9 6,4 SW 6,4 1023,9 90 - -
05:30 6,4 4,9 3,2 SSW 8,0 1023,9 90 - -
05:35 6,3 4,8 6,4 SW 8,0 1023,9 90 - -
05:40 6,4 4,9 6,4 SW 12,9 1023,9 90 - -
05:45 6,6 5,1 3,2 WSW 8,0 1023,9 90 - -
05:50 6,4 4,9 3,2 SW 8,0 1023,9 90 - -
05:55 6,4 4,9 4,7 SW 6,4 1023,9 90 - -
06:00 6,3 4,8 6,4 SW 8,0 1023,9 90 - -
06:05 6,3 4,8 4,7 SW 8,0 1023,9 90 - -
06:10 6,3 4,8 4,7 SW 8,0 1023,9 90 - -
06:15 6,2 4,7 4,7 SW 11,3 1023,9 90 - -
06:20 6,2 4,8 7,9 SSW 9,7 1023,9 91 - -
06:25 6,3 4,9 6,4 SW 8,0 1023,9 91 - -
06:30 6,5 5,1 6,4 SW 9,7 1023,9 91 - -
06:35 6,6 5,2 4,7 SW 8,0 1023,9 91 - -
06:40 6,6 5,2 4,7 SW 11,3 1023,9 91 - 5
06:45 6,6 5,1 6,4 WSW 8,0 1023,9 90 - 5
06:50 6,5 5,1 6,4 SW 8,0 1023,9 91 - 7
06:55 6,6 5,2 7,9 WSW 11,3 1024,3 91 - 9
07:00 6,6 5,2 6,4 SW 9,7 1024,3 91 - 11
07:05 6,7 5,3 4,7 WSW 12,9 1024,3 91 - 14
07:10 6,8 5,4 6,4 WSW 9,7 1024,3 91 - 16
07:15 6,9 5,5 4,7 SW 9,7 1024,3 91 - 19
07:20 7,0 5,6 6,4 SW 8,0 1024,3 91 - 23
07:25 7,1 5,7 6,4 SW 8,0 1024,6 91 - 26
07:30 7,2 5,8 4,7 WSW 9,7 1024,6 91 - 28
07:35 7,3 6,1 6,4 SW 8,0 1024,6 92 - 54
07:40 7,3 6,1 3,2 SW 8,0 1024,3 92 - 83
07:45 7,5 6,3 4,7 SW 8,0 1024,6 92 - 95
07:50 7,7 6,5 4,7 SW 8,0 1024,6 92 - 111
07:55 7,8 6,6 6,4 SW 8,0 1024,6 92 - 123
08:00 7,9 6,7 3,2 WSW 8,0 1024,6 92 - 132
08:05 8,2 7,0 7,9 WSW 9,7 1024,6 92 - 93
08:10 8,3 7,1 4,7 SW 8,0 1024,9 92 - 69
08:15 8,5 7,3 6,4 SW 6,4 1024,9 92 - 118
08:20 8,7 7,5 3,2 SW 6,4 1024,9 92 - 137
08:25 9,1 7,9 3,2 SW 6,4 1024,9 92 - 158
08:30 9,4 8,3 3,2 West 4,8 1024,9 93 - 225
08:35 9,7 8,6 4,7 WNW 8,0 1024,9 93 - 128
08:40 10,1 8,9 3,2 West 11,3 1024,9 92 - 104
08:45 10,3 9,1 1,4 West 8,0 1024,9 92 - 183
08:50 10,4 9,2 1,4 West 6,4 1024,9 92 - 49
08:55 10,3 8,9 1,4 West 4,8 1024,9 91 - 53
09:00 10,3 8,9 3,2 West 4,8 1025,3 91 - 72
09:05 10,3 8,9 4,7 West 4,8 1025,3 91 - 216
09:10 10,5 9,1 3,2 WSW 6,4 1025,3 91 - 62
09:15 10,7 9,3 1,4 WSW 3,2 1025,3 91 - 329
09:20 11,2 9,6 3,2 West 9,7 1025,3 90 - 269
09:25 11,6 9,8 4,7 West 4,8 1025,6 89 - 278
09:30 11,9 9,8 4,7 WNW 9,7 1025,6 87 - 346
09:35 12,2 9,9 4,7 NW 6,4 1025,6 86 - 355
09:40 12,6 10,1 6,4 NNW 14,5 1025,6 85 - 366
09:45 12,7 9,9 3,2 WNW 8,0 1025,6 83 - 355
09:50 12,8 9,8 1,4 NNW 8,0 1025,6 82 - 381
09:55 12,9 9,5 4,7 North 9,7 1025,6 80 - 399
10:00 13,0 9,6 9,7 NNE 9,7 1026,0 80 - 397
10:05 13,0 9,6 7,9 NNW 16,1 1026,0 80 - 397
10:10 13,1 9,5 3,2 NW 8,0 1026,0 79 - 411
10:15 13,3 9,0 7,9 NE 11,3 1026,0 75 - 429
10:20 13,4 8,5 7,9 North 16,1 1026,0 72 - 443
10:25 13,7 8,5 3,2 North 11,3 1026,3 71 - 455
10:30 13,7 8,7 7,9 NE 16,1 1026,0 72 - 452
10:35 13,2 8,1 7,9 NE 16,1 1026,3 71 - 468
10:40 13,2 8,3 9,7 NE 14,5 1026,3 72 0,30 475
10:45 13,5 8,6 4,7 ENE 11,3 1026,6 72 0,30 390
10:50 13,4 8,2 7,9 NE 12,9 1026,6 71 0,30 461
10:55 14,0 8,8 1,4 North 6,4 1026,6 71 0,30 492
11:00 13,8 8,4 6,4 NNE 8,0 1026,6 70 0,30 497
11:05 13,8 8,4 6,4 NE 11,3 1026,6 70 0,30 515
11:10 14,0 8,2 4,7 ENE 14,5 1026,6 68 0,30 527
11:15 14,2 8,2 4,7 NE 6,4 1026,6 67 0,30 499
11:20 14,3 8,3 9,7 NE 14,5 1027,0 67 0,30 534
11:25 14,3 8,5 7,9 NNE 9,7 1027,0 68 0,30 513
11:30 14,6 8,1 6,4 North 16,1 1027,0 65 0,30 510
11:35 14,3 7,4 4,7 WNW 14,5 1027,0 63 0,30 461
11:40 14,3 7,6 9,7 NNW 9,7 1027,0 64 - 557
11:45 14,3 6,1 7,9 NNW 14,5 1027,0 58 - 475
11:50 14,2 7,3 4,7 NNW 14,5 1027,0 63 - 443
11:55 14,3 6,4 6,4 North 14,5 1027,0 59 - 538
12:00 14,4 6,2 4,7 NNE 11,3 1027,0 58 - 540
12:05 14,4 6,2 9,7 NNW 17,7 1027,3 58 - 538
12:10 14,6 6,4 14,3 NNE 17,7 1027,3 58 - 468
12:15 14,4 6,0 9,7 NNE 14,5 1027,3 57 - 496
12:20 14,9 6,7 11,1 NW 11,3 1027,3 58 - 541
12:25 14,8 6,4 9,7 North 16,1 1027,3 57 - 512
12:30 14,8 6,1 9,7 NW 12,9 1027,3 56 - 515
12:35 14,7 5,8 6,4 North 19,3 1027,3 55 - 559
12:40 14,9 6,5 4,7 WNW 17,7 1027,3 57 - 563
12:45 14,7 5,8 14,3 NNW 19,3 1027,7 55 - 564
12:50 14,7 5,5 17,7 NW 17,7 1027,7 54 - 561
12:55 14,8 5,6 9,7 North 17,7 1027,7 54 - 566
13:00 14,9 5,7 9,7 NNW 17,7 1027,7 54 - 503
13:05 14,8 5,8 13,0 NW 19,3 1027,7 55 - 492
13:10 14,9 5,4 13,0 NNW 17,7 1027,7 53 - 478
13:15 14,7 6,3 6,4 NNW 16,1 1027,7 57 - 436
13:20 14,8 5,8 14,3 NNE 22,5 1027,7 55 - 487
13:25 14,6 6,2 17,7 NW 24,1 1027,7 57 - 464
13:30 14,3 6,1 14,3 North 17,7 1027,7 58 - 469
13:35 14,6 7,2 11,1 NNE 14,5 1027,7 61 - 436
Daily Summary for Thursday 19 September 2019
Time Temp. ( °C ) Dew pt. ( °C ) Wind ( km/h ) from Gust ( km/h ) Pressure ( hPa ) Humid.( % ) Rainrate ( cm ) Solar ( W/m2 )
High14,9 10,1 17,7 SW ( 260/812 ) 24,1 1027,7 93 0,30 566
Average9,4 6,3 4,9 SW #66/164 8,6 1024,6 82 0,60 322 #84/164
Low6,2 4,5 -   0,0 1022,2 53 -  
Daily Tabular details for Thursday 19 September 2019
Time Temp. ( °C ) Dew pt. ( °C ) Wind ( km/h ) from Gust ( km/h ) Pressure ( hPa ) Humid.( % ) Rainrate ( cm ) Solar ( W/m2 )
00:00 6,9 5,1 3,2 SW 4,8 1022,2 88 - -
00:05 6,9 5,1 4,7 SW 6,4 1022,2 88 - -
00:10 6,8 5,0 1,4 SW 4,8 1022,2 88 - -
00:15 6,7 4,9 3,2 SW 4,8 1022,2 88 - -
00:20 6,6 4,8 3,2 SW 4,8 1022,2 88 - -
00:25 6,6 4,8 3,2 SW 4,8 1022,2 88 - -
00:30 6,7 4,9 3,2 WSW 4,8 1022,6 88 - -
00:35 6,7 4,9 1,4 WSW 3,2 1022,6 88 - -
00:40 6,8 5,0 1,4 SW 6,4 1022,2 88 - -
00:45 6,8 5,0 3,2 SW 3,2 1022,6 88 - -
00:50 6,6 4,8 1,4 SW 3,2 1022,6 88 - -
00:55 6,6 4,8 3,2 SW 3,2 1022,6 88 - -
01:00 6,6 4,8   Calm 3,2 1022,6 88 - -
01:05 6,8 5,0 1,4 West 4,8 1022,6 88 - -
01:10 6,9 5,1 1,4 West 4,8 1022,6 88 - -
01:15 6,9 4,9 1,4 West 4,8 1022,6 87 - -
01:20 6,9 4,9 3,2 West 4,8 1022,9 87 - -
01:25 6,9 4,9 3,2 West 4,8 1022,6 87 - -
01:30 6,8 4,8 3,2 West 4,8 1022,9 87 - -
01:35 6,6 4,6 3,2 SW 4,8 1022,6 87 - -
01:40 6,4 4,6 3,2 SW 4,8 1022,9 88 - -
01:45 6,4 4,6 1,4 SW 3,2 1022,9 88 - -
01:50 6,4 4,6 1,4 SW 3,2 1022,9 88 - -
01:55 6,3 4,5 3,2 SW 4,8 1022,9 88 - -
02:00 6,3 4,6 1,4 SW 3,2 1022,9 89 - -
02:05 6,3 4,6 3,2 ENE 11,3 1023,2 89 - -
02:10 6,5 4,8 3,2 NE 4,8 1023,2 89 - -
02:15 7,0 5,5   Calm 1,6 1023,2 90 - -
02:20 7,3 5,6 1,4 NE 3,2 1023,2 89 - -
02:25 7,4 5,7 1,4 NE 1,6 1023,2 89 - -
02:30 7,5 5,8 1,4 NE 3,2 1023,2 89 - -
02:35 7,6 5,9   Calm   1023,2 89 - -
02:40 7,6 5,9 3,2 NW 6,4 1023,2 89 - -
02:45 7,7 6,0 1,4 NW 3,2 1023,2 89 - -
02:50 7,8 6,1 1,4 NW 4,8 1023,2 89 - -
02:55 7,7 6,0 3,2 NW 4,8 1023,2 89 - -
03:00 7,7 6,0 4,7 SW 6,4 1023,2 89 - -
03:05 7,7 6,0 4,7 SW 4,8 1023,2 89 - -
03:10 7,6 5,9 6,4 SW 6,4 1023,2 89 - -
03:15 7,5 5,8 3,2 SW 4,8 1023,2 89 - -
03:20 7,6 5,9 4,7 SW 4,8 1023,2 89 - -
03:25 7,5 5,8 1,4 SW 3,2 1023,2 89 - -
03:30 7,6 5,9   Calm 8,0 1023,2 89 - -
03:35 7,5 5,8 3,2 SW 8,0 1023,2 89 - -
03:40 7,4 5,7 3,2 SW 4,8 1023,2 89 - -
03:45 7,4 5,7 1,4 SW 3,2 1023,2 89 - -
03:50 7,3 5,6 1,4 SW 3,2 1023,6 89 - -
03:55 7,2 5,5 3,2 SW 4,8 1023,6 89 - -
04:00 7,2 5,5 1,4 SW 3,2 1023,6 89 - -
04:05 7,0 5,3 3,2 South 6,4 1023,6 89 - -
04:10 7,1 5,6 3,2 South 4,8 1023,6 90 - -
04:15 7,2 5,7 1,4 South 6,4 1023,6 90 - -
04:20 7,2 5,7 4,7 WSW 6,4 1023,6 90 - -
04:25 7,2 5,7 4,7 NW 4,8 1023,6 90 - -
04:30 7,1 5,6 3,2 SW 6,4 1023,6 90 - -
04:35 7,2 5,7 1,4 SW 3,2 1023,6 90 - -
04:40 7,2 5,5 3,2 SW 4,8 1023,6 89 - -
04:45 6,9 5,2 4,7 SW 6,4 1023,6 89 - -
04:50 6,8 5,1 4,7 SW 4,8 1023,6 89 - -
04:55 6,6 4,9 3,2 SW 4,8 1023,6 89 - -
05:00 6,4 4,7 3,2 SW 4,8 1023,6 89 - -
05:05 6,3 4,6 3,2 SW 4,8 1023,6 89 - -
05:10 6,4 4,9 1,4 SW 4,8 1023,6 90 - -
05:15 6,4 4,9 3,2 SW 4,8 1023,9 90 - -
05:20 6,3 4,8 4,7 SW 11,3 1023,9 90 - -
05:25 6,4 4,9 6,4 SW 6,4 1023,9 90 - -
05:30 6,4 4,9 3,2 SSW 8,0 1023,9 90 - -
05:35 6,3 4,8 6,4 SW 8,0 1023,9 90 - -
05:40 6,4 4,9 6,4 SW 12,9 1023,9 90 - -
05:45 6,6 5,1 3,2 WSW 8,0 1023,9 90 - -
05:50 6,4 4,9 3,2 SW 8,0 1023,9 90 - -
05:55 6,4 4,9 4,7 SW 6,4 1023,9 90 - -
06:00 6,3 4,8 6,4 SW 8,0 1023,9 90 - -
06:05 6,3 4,8 4,7 SW 8,0 1023,9 90 - -
06:10 6,3 4,8 4,7 SW 8,0 1023,9 90 - -
06:15 6,2 4,7 4,7 SW 11,3 1023,9 90 - -
06:20 6,2 4,8 7,9 SSW 9,7 1023,9 91 - -
06:25 6,3 4,9 6,4 SW 8,0 1023,9 91 - -
06:30 6,5 5,1 6,4 SW 9,7 1023,9 91 - -
06:35 6,6 5,2 4,7 SW 8,0 1023,9 91 - -
06:40 6,6 5,2 4,7 SW 11,3 1023,9 91 - 5
06:45 6,6 5,1 6,4 WSW 8,0 1023,9 90 - 5
06:50 6,5 5,1 6,4 SW 8,0 1023,9 91 - 7
06:55 6,6 5,2 7,9 WSW 11,3 1024,3 91 - 9
07:00 6,6 5,2 6,4 SW 9,7 1024,3 91 - 11
07:05 6,7 5,3 4,7 WSW 12,9 1024,3 91 - 14
07:10 6,8 5,4 6,4 WSW 9,7 1024,3 91 - 16
07:15 6,9 5,5 4,7 SW 9,7 1024,3 91 - 19
07:20 7,0 5,6 6,4 SW 8,0 1024,3 91 - 23
07:25 7,1 5,7 6,4 SW 8,0 1024,6 91 - 26
07:30 7,2 5,8 4,7 WSW 9,7 1024,6 91 - 28
07:35 7,3 6,1 6,4 SW 8,0 1024,6 92 - 54
07:40 7,3 6,1 3,2 SW 8,0 1024,3 92 - 83
07:45 7,5 6,3 4,7 SW 8,0 1024,6 92 - 95
07:50 7,7 6,5 4,7 SW 8,0 1024,6 92 - 111
07:55 7,8 6,6 6,4 SW 8,0 1024,6 92 - 123
08:00 7,9 6,7 3,2 WSW 8,0 1024,6 92 - 132
08:05 8,2 7,0 7,9 WSW 9,7 1024,6 92 - 93
08:10 8,3 7,1 4,7 SW 8,0 1024,9 92 - 69
08:15 8,5 7,3 6,4 SW 6,4 1024,9 92 - 118
08:20 8,7 7,5 3,2 SW 6,4 1024,9 92 - 137
08:25 9,1 7,9 3,2 SW 6,4 1024,9 92 - 158
08:30 9,4 8,3 3,2 West 4,8 1024,9 93 - 225
08:35 9,7 8,6 4,7 WNW 8,0 1024,9 93 - 128
08:40 10,1 8,9 3,2 West 11,3 1024,9 92 - 104
08:45 10,3 9,1 1,4 West 8,0 1024,9 92 - 183
08:50 10,4 9,2 1,4 West 6,4 1024,9 92 - 49
08:55 10,3 8,9 1,4 West 4,8 1024,9 91 - 53
09:00 10,3 8,9 3,2 West 4,8 1025,3 91 - 72
09:05 10,3 8,9 4,7 West 4,8 1025,3 91 - 216
09:10 10,5 9,1 3,2 WSW 6,4 1025,3 91 - 62
09:15 10,7 9,3 1,4 WSW 3,2 1025,3 91 - 329
09:20 11,2 9,6 3,2 West 9,7 1025,3 90 - 269
09:25 11,6 9,8 4,7 West 4,8 1025,6 89 - 278
09:30 11,9 9,8 4,7 WNW 9,7 1025,6 87 - 346
09:35 12,2 9,9 4,7 NW 6,4 1025,6 86 - 355
09:40 12,6 10,1 6,4 NNW 14,5 1025,6 85 - 366
09:45 12,7 9,9 3,2 WNW 8,0 1025,6 83 - 355
09:50 12,8 9,8 1,4 NNW 8,0 1025,6 82 - 381
09:55 12,9 9,5 4,7 North 9,7 1025,6 80 - 399
10:00 13,0 9,6 9,7 NNE 9,7 1026,0 80 - 397
10:05 13,0 9,6 7,9 NNW 16,1 1026,0 80 - 397
10:10 13,1 9,5 3,2 NW 8,0 1026,0 79 - 411
10:15 13,3 9,0 7,9 NE 11,3 1026,0 75 - 429
10:20 13,4 8,5 7,9 North 16,1 1026,0 72 - 443
10:25 13,7 8,5 3,2 North 11,3 1026,3 71 - 455
10:30 13,7 8,7 7,9 NE 16,1 1026,0 72 - 452
10:35 13,2 8,1 7,9 NE 16,1 1026,3 71 - 468
10:40 13,2 8,3 9,7 NE 14,5 1026,3 72 0,30 475
10:45 13,5 8,6 4,7 ENE 11,3 1026,6 72 0,30 390
10:50 13,4 8,2 7,9 NE 12,9 1026,6 71 0,30 461
10:55 14,0 8,8 1,4 North 6,4 1026,6 71 0,30 492
11:00 13,8 8,4 6,4 NNE 8,0 1026,6 70 0,30 497
11:05 13,8 8,4 6,4 NE 11,3 1026,6 70 0,30 515
11:10 14,0 8,2 4,7 ENE 14,5 1026,6 68 0,30 527
11:15 14,2 8,2 4,7 NE 6,4 1026,6 67 0,30 499
11:20 14,3 8,3 9,7 NE 14,5 1027,0 67 0,30 534
11:25 14,3 8,5 7,9 NNE 9,7 1027,0 68 0,30 513
11:30 14,6 8,1 6,4 North 16,1 1027,0 65 0,30 510
11:35 14,3 7,4 4,7 WNW 14,5 1027,0 63 0,30 461
11:40 14,3 7,6 9,7 NNW 9,7 1027,0 64 - 557
11:45 14,3 6,1 7,9 NNW 14,5 1027,0 58 - 475
11:50 14,2 7,3 4,7 NNW 14,5 1027,0 63 - 443
11:55 14,3 6,4 6,4 North 14,5 1027,0 59 - 538
12:00 14,4 6,2 4,7 NNE 11,3 1027,0 58 - 540
12:05 14,4 6,2 9,7 NNW 17,7 1027,3 58 - 538
12:10 14,6 6,4 14,3 NNE 17,7 1027,3 58 - 468
12:15 14,4 6,0 9,7 NNE 14,5 1027,3 57 - 496
12:20 14,9 6,7 11,1 NW 11,3 1027,3 58 - 541
12:25 14,8 6,4 9,7 North 16,1 1027,3 57 - 512
12:30 14,8 6,1 9,7 NW 12,9 1027,3 56 - 515
12:35 14,7 5,8 6,4 North 19,3 1027,3 55 - 559
12:40 14,9 6,5 4,7 WNW 17,7 1027,3 57 - 563
12:45 14,7 5,8 14,3 NNW 19,3 1027,7 55 - 564
12:50 14,7 5,5 17,7 NW 17,7 1027,7 54 - 561
12:55 14,8 5,6 9,7 North 17,7 1027,7 54 - 566
13:00 14,9 5,7 9,7 NNW 17,7 1027,7 54 - 503
13:05 14,8 5,8 13,0 NW 19,3 1027,7 55 - 492
13:10 14,9 5,4 13,0 NNW 17,7 1027,7 53 - 478
13:15 14,7 6,3 6,4 NNW 16,1 1027,7 57 - 436
13:20 14,8 5,8 14,3 NNE 22,5 1027,7 55 - 487
13:25 14,6 6,2 17,7 NW 24,1 1027,7 57 - 464
13:30 14,3 6,1 14,3 North 17,7 1027,7 58 - 469
13:35 14,6 7,2 11,1 NNE 14,5 1027,7 61 - 436

Download your copy of this data-set  here

Our weather-data as stored at Weather Underground. Script developed by Jim McMurry. Adapted for the template by Leuven-Template.eu

You find our weather info also at:

European Weather Network

Weather Underground

European Weather Network

Equipment we use:

Weather-station
Davis VP2

Weather-program
Weather Display

Davis VP2

Weather Display



Hej. Vi har købt ny vejrstation, og er ved at bygge en helt ny vejrside.
Kom snart tilbage og følg udviklingen.
Du kan også komme med kommentarer eller evt. ønsker via "Kontakt" i bunden.